GEFSSGP_con_cape1000_282.txt.gz
Probability
35 16 19 26 16 0 0 0 0 0 0 0 0 0 0 3 0 0 0 6 6 13 23 55 74 68 71 77 68 65 71 68 71 71 58 65 71 74 65 68 65 58 61 58 55 61 58 55 58
16 16 23 13 10 0 0 0 0 0 0 0 0 0 0 0 0 3 3 6 6 13 19 32 84 74 65 55 65 61 61 71 71 61 68 68 65 61 58 52 58 58 52 48 52 55 58 55 61
13 16 13 10 6 0 0 0 0 0 0 0 0 0 0 0 0 0 6 6 6 13 16 32 77 68 58 58 65 65 68 71 68 68 68 65 52 65 61 58 52 48 48 39 45 55 48 55 55
10 10 10 10 10 0 0 0 0 0 0 0 0 0 0 0 0 3 6 3 3 6 16 45 74 65 61 58 61 65 71 71 74 65 65 65 58 61 58 52 55 55 55 48 48 58 58 58 55
10 16 16 3 3 3 0 0 0 0 0 0 0 0 0 3 0 3 0 3 3 6 19 35 74 68 65 55 58 65 71 68 71 61 65 68 61 68 65 58 61 55 52 45 48 48 45 45 55
13 10 3 0 0 0 0 0 0 0 0 0 0 0 0 0 0 0 0 0 6 6 10 29 77 68 65 65 61 65 65 65 68 61 65 61 68 71 58 55 48 52 52 52 52 42 42 48 42
10 6 0 0 0 0 0 0 0 0 0 0 0 0 0 0 0 0 0 0 3 6 10 23 42 52 68 77 77 68 71 65 65 68 61 55 65 61 65 55 45 39 42 52 42 39 32 45 32
10 10 3 3 0 0 0 0 0 0 0 0 0 0 0 0 0 0 0 0 3 6 10 13 26 29 39 58 77 74 68 71 71 71 71 61 65 58 65 65 61 48 48 45 45 42 42 45 48
10 3 3 3 0 0 0 0 0 0 0 0 0 0 0 3 6 3 3 3 3 3 0 6 10 13 19 26 55 65 61 65 68 68 74 55 26 35 45 55 61 58 55 42 42 45 45 42 52
3 0 3 3 0 0 0 0 0 0 0 0 0 0 0 0 0 0 0 6 6 6 3 3 6 3 6 19 29 39 45 48 35 26 26 23 6 6 26 48 71 65 52 48 45 52 42 29 6
6 3 3 0 0 0 0 0 0 0 0 0 0 0 0 0 3 3 3 3 3 3 0 0 3 0 0 0 16 16 19 26 19 10 6 10 6 3 13 16 29 29 35 16 19 29 6 3 0
0 0 3 0 0 0 0 0 3 0 3 3 3 3 3 3 3 3 3 3 3 3 0 3 6 6 6 6 16 13 10 13 13 10 10 3 3 3 6 3 3 3 3 3 3 0 0 0 0
0 0 0 0 0 0 0 0 0 3 3 3 3 3 3 0 0 0 0 0 3 6 6 10 10 6 6 3 6 10 10 10 13 6 10 6 3 3 3 3 3 3 3 3 0 0 0 0 0
0 0 0 0 0 0 0 0 6 0 3 0 0 3 3 0 0 0 6 6 10 16 13 13 16 23 19 13 10 13 13 6 10 3 6 6 3 6 6 3 3 3 3 0 0 0 0 0 0
0 0 0 0 0 0 0 3 6 3 0 0 3 3 0 0 3 6 6 6 10 13 13 13 19 29 26 23 16 13 10 13 10 10 16 13 6 3 3 6 3 3 6 3 0 0 0 0 0
0 0 0 0 0 0 0 3 6 0 0 0 3 0 3 6 10 10 10 10 10 10 10 23 26 19 29 29 23 23 16 13 13 16 16 19 16 13 6 3 3 6 0 3 3 0 0 0 0
0 0 0 0 0 0 0 3 3 3 0 0 0 3 6 10 10 10 10 13 10 10 13 16 19 29 29 26 23 26 23 19 16 16 16 19 23 13 10 10 3 6 3 3 3 0 0 0 3
0 0 0 0 0 3 3 3 3 3 3 0 0 3 6 10 13 10 13 13 13 6 10 16 29 29 29 26 23 23 19 13 19 16 16 23 26 19 10 10 10 6 6 3 0 3 0 0 3
0 0 0 0 0 0 3 3 3 3 3 3 3 3 6 10 10 13 13 13 13 6 19 26 29 32 26 23 29 26 13 19 16 13 19 19 19 19 6 13 10 6 3 3 3 3 0 3 3
0 0 0 0 0 0 0 0 0 0 3 3 6 3 3 3 6 6 6 10 6 13 19 16 29 35 32 26 26 32 29 26 19 19 16 16 16 16 23 10 10 3 3 0 0 3 0 3 3
0 0 0 0 0 0 0 0 0 0 3 3 6 6 3 3 6 6 10 10 6 6 23 29 35 32 39 32 35 32 23 26 26 23 16 19 19 13 10 10 6 6 3 3 0 0 3 3 3
0 0 0 0 0 0 0 0 0 0 3 3 3 0 0 3 3 6 6 6 10 16 32 39 35 35 42 35 35 29 26 23 26 19 23 23 19 19 13 13 10 16 6 0 0 6 3 3 3
0 0 0 0 0 0 0 0 0 0 3 3 0 0 0 6 6 6 6 6 6 23 29 35 39 39 29 35 42 26 29 23 32 16 26 19 13 19 19 16 13 13 3 3 3 3 3 3 3
0 0 0 0 0 0 0 0 0 0 3 3 0 0 3 6 3 6 6 3 6 23 29 39 39 39 32 35 35 32 35 29 32 29 23 23 13 10 16 16 13 10 10 10 6 3 6 10 10
0 0 0 0 0 0 0 0 0 0 3 3 0 0 3 0 3 3 3 6 10 19 32 45 45 39 32 35 26 23 23 26 23 19 23 19 19 16 16 19 16 3 10 13 13 13 10 10 13
0 0 0 0 0 0 0 0 0 3 3 3 3 0 3 6 3 6 6 6 13 23 29 45 48 42 39 39 29 26 35 26 26 26 23 23 19 23 19 23 19 13 19 23 19 16 23 23 19
0 0 0 0 0 0 0 0 0 6 3 3 3 3 3 6 10 6 10 10 16 19 23 39 48 48 52 48 35 32 32 32 29 29 29 26 19 23 19 19 23 16 16 16 23 19 16 23 23
0 0 0 0 0 0 0 0 0 3 3 3 3 3 6 3 3 6 10 10 13 19 16 32 48 52 52 45 48 35 32 32 39 19 23 23 26 26 23 19 16 13 10 13 16 19 19 19 19
0 0 0 0 0 0 0 0 0 0 3 3 6 3 3 3 3 3 6 10 10 13 19 32 48 48 55 52 48 35 39 42 35 35 26 23 16 16 16 13 10 10 13 13 16 19 19 19 19
0 0 0 0 0 0 0 0 0 0 0 0 0 0 0 3 3 3 6 10 16 13 19 29 45 52 52 45 45 39 35 39 32 29 26 23 19 23 23 19 16 19 26 19 19 23 23 16 16

GEFSSGP_con_cape1000_288.txt.gz
Probability
23 19 16 13 0 0 0 0 0 0 0 0 0 0 0 0 0 0 0 3 6 3 19 42 61 65 65 61 68 65 65 58 58 58 61 65 61 65 68 55 55 61 61 68 68 52 52 48 52
13 16 10 0 0 0 0 0 0 0 0 0 0 0 0 0 0 0 3 6 10 13 13 29 65 65 65 71 71 71 68 61 55 58 61 55 55 61 61 61 55 48 58 58 58 52 55 52 48
16 13 13 3 0 0 0 0 0 0 0 0 0 0 0 0 3 3 3 6 6 13 10 23 68 68 68 68 71 68 65 61 61 55 58 61 65 58 61 61 55 48 52 58 52 58 52 48 45
6 6 3 3 0 0 0 0 0 0 0 0 0 0 0 0 0 3 6 6 3 10 6 26 61 68 68 65 65 61 65 58 61 55 65 61 58 61 58 58 52 45 42 45 48 52 45 45 42
6 6 3 0 0 0 0 0 0 0 0 0 0 0 0 0 0 0 3 6 3 3 13 29 61 68 74 61 58 58 58 61 58 61 65 58 58 58 55 48 42 48 48 48 45 45 55 52 48
10 3 0 0 0 0 0 0 0 0 0 0 0 0 0 0 0 0 0 3 3 6 10 23 61 71 77 74 55 58 68 65 65 61 68 68 68 58 61 52 48 45 42 45 48 45 48 42 45
3 3 0 3 3 0 0 0 0 0 0 0 0 0 0 0 0 0 0 3 3 6 10 13 26 48 65 71 68 74 68 77 74 71 71 68 68 68 65 55 45 45 39 42 42 39 42 42 39
6 3 3 3 3 0 0 0 0 0 0 0 0 0 0 0 3 3 0 0 0 3 6 10 10 16 39 48 58 77 77 77 81 77 74 74 74 71 68 61 55 52 42 45 42 42 35 42 48
10 0 0 3 3 0 0 0 0 0 0 0 0 0 3 3 3 0 0 0 0 0 3 3 3 3 13 26 45 52 61 68 65 58 61 48 29 23 42 48 58 52 45 42 35 35 39 35 32
6 0 0 0 3 0 0 0 0 0 0 0 0 3 0 0 0 0 0 0 0 0 0 0 0 0 6 13 16 19 26 29 35 29 29 16 6 10 26 39 52 52 39 42 35 32 32 13 0
0 0 0 0 3 0 0 0 0 0 3 3 0 0 0 0 0 0 0 0 0 0 3 0 0 0 0 3 10 10 19 19 16 13 13 10 6 6 10 10 16 16 13 10 13 6 6 0 0
3 3 0 0 0 0 0 0 0 3 3 0 0 0 0 0 0 0 0 0 0 0 0 0 0 0 0 0 3 3 3 10 6 6 3 3 10 3 3 6 0 0 0 0 0 0 0 0 0
0 0 0 0 0 0 0 0 0 3 6 3 0 0 3 0 3 6 0 3 3 3 3 3 0 0 0 0 0 3 3 6 3 6 6 3 6 3 6 3 0 0 0 0 0 0 0 0 3
0 0 0 0 0 0 0 0 0 0 3 0 0 0 6 6 10 10 6 6 6 6 6 6 3 0 0 0 3 3 3 3 3 3 3 3 10 6 3 0 0 0 0 0 0 0 0 0 0
0 0 0 0 0 3 0 0 0 0 0 3 3 6 6 6 6 6 6 6 6 6 6 6 6 3 3 3 3 3 3 3 3 3 3 6 6 6 3 0 0 0 0 0 0 0 0 0 0
0 0 0 0 0 0 0 0 0 3 0 3 6 10 6 6 6 6 6 6 6 3 3 3 3 3 3 3 3 3 3 6 3 3 3 6 10 6 0 0 0 0 0 0 0 0 0 0 0
0 0 0 0 0 0 0 0 0 3 0 0 6 10 10 6 6 6 6 3 3 3 3 3 3 3 3 3 3 3 3 3 3 3 6 10 10 10 0 0 0 0 0 0 3 0 0 0 0
0 0 0 0 0 0 0 0 0 0 0 3 3 10 3 6 6 6 3 3 3 3 3 3 3 3 3 3 3 6 6 6 10 6 6 10 10 10 6 0 0 0 0 0 0 3 0 0 3
0 0 0 0 0 0 0 0 0 0 0 3 3 0 0 0 6 3 3 3 0 0 0 0 3 0 0 6 6 10 6 6 10 10 13 13 13 16 10 6 3 0 0 0 0 3 0 0 3
0 0 0 0 0 0 0 0 6 0 0 3 0 0 3 3 3 3 3 3 0 0 3 3 3 0 0 0 3 6 3 10 6 3 10 13 13 10 10 6 6 3 0 0 0 0 0 0 3
0 0 0 0 0 0 0 0 6 6 3 0 0 0 0 3 0 0 0 0 0 0 3 3 3 3 0 0 3 6 6 10 6 6 10 13 6 6 3 3 6 6 6 0 0 0 0 0 3
0 0 0 0 0 0 0 0 0 3 6 3 0 0 0 3 3 3 0 3 3 0 3 3 3 3 3 0 6 13 16 16 13 6 13 6 3 6 6 10 6 6 6 3 0 0 0 0 0
0 0 0 0 0 0 0 0 0 3 3 0 0 0 0 0 3 3 3 3 3 3 3 3 3 3 3 6 10 10 13 13 16 6 13 10 3 3 10 10 10 6 3 3 3 6 0 0 3
0 0 0 0 0 0 0 0 0 0 3 0 0 0 0 0 3 3 3 3 3 3 3 3 3 3 3 6 6 13 13 13 13 6 6 10 10 3 6 13 6 6 6 3 3 3 3 6 6
0 0 0 0 0 0 0 0 0 0 0 0 0 0 0 0 0 6 3 3 3 3 6 6 0 3 6 13 13 16 16 13 13 10 6 10 10 13 6 13 10 6 6 6 6 3 6 3 10
0 0 0 0 0 0 0 0 0 0 0 0 0 0 0 0 3 3 3 3 3 3 6 10 6 10 10 13 16 13 13 13 13 6 10 10 10 13 10 6 6 3 10 10 10 10 6 6 6
0 0 0 0 0 0 0 0 3 3 0 0 0 0 0 0 3 3 3 3 3 3 3 3 0 10 10 16 16 16 13 13 19 6 10 13 13 13 10 10 10 10 10 13 10 10 10 10 10
0 0 0 0 0 0 0 0 0 3 3 0 0 0 0 0 3 3 3 3 3 3 3 0 3 10 10 13 10 16 13 16 16 6 6 10 13 13 10 10 10 10 10 10 13 13 16 10 13
0 0 0 0 0 0 0 0 0 0 3 0 0 0 0 3 3 3 3 3 6 3 3 6 10 10 6 16 13 16 16 13 16 13 6 13 13 13 13 13 10 10 6 10 13 13 16 13 13
0 0 0 0 0 0 0 0 0 0 3 3 0 0 0 3 3 3 3 3 6 3 3 10 13 10 13 19 16 16 13 13 10 10 13 13 10 13 13 16 10 3 6 10 10 10 13 13 10

GEFSSGP_con_cape1000_294.txt.gz
Probability
29 32 26 39 39 3 0 0 0 0 0 0 0 0 0 0 0 3 0 0 0 3 10 23 55 55 58 48 61 65 68 65 65 71 68 58 58 65 65 68 71 68 65 61 68 65 65 61 65
19 19 32 35 6 0 0 0 0 0 0 0 0 0 0 0 0 0 0 0 0 0 3 19 48 55 55 61 65 58 61 68 68 71 61 58 55 55 55 55 45 55 58 61 61 58 52 48 68
23 26 32 10 3 0 0 0 0 0 0 0 0 0 0 0 0 0 10 10 3 3 10 32 55 48 61 58 61 58 58 68 71 71 65 65 52 48 52 45 48 45 48 55 52 45 35 45 55
29 35 26 3 0 0 0 0 0 0 0 0 0 0 0 3 3 3 10 10 6 6 6 26 55 48 42 55 55 55 61 61 65 61 61 55 48 55 42 42 42 45 55 48 48 35 35 29 42
32 39 3 0 0 0 0 0 0 0 0 0 0 0 6 3 3 6 6 3 3 3 6 19 45 45 55 42 52 55 58 58 58 61 55 58 55 52 42 45 39 45 45 42 45 35 35 29 29
32 13 3 3 0 0 0 0 0 0 0 0 0 0 6 6 3 6 6 10 6 10 19 23 45 39 42 48 52 61 58 61 58 58 58 58 58 55 55 48 39 42 42 42 39 26 35 39 39
23 6 3 3 0 0 0 0 0 0 0 0 0 0 3 3 3 0 0 10 13 16 19 19 23 29 35 45 55 68 74 74 61 68 61 68 61 52 48 45 55 42 42 45 35 32 23 39 45
26 6 0 0 0 0 0 0 0 0 3 3 3 3 0 0 6 3 3 6 10 16 19 23 19 19 29 39 61 68 68 71 61 71 68 68 68 48 55 52 45 45 48 35 29 29 35 23 23
23 6 0 0 0 0 0 0 0 3 0 0 0 0 3 3 3 3 3 3 10 13 19 23 26 29 32 26 23 45 55 61 61 68 65 65 48 39 42 39 42 35 32 23 26 26 26 26 23
19 3 0 0 0 0 0 0 0 0 0 3 0 0 0 3 3 3 0 3 10 10 16 16 26 29 29 23 42 42 35 58 58 68 65 65 61 45 29 42 45 39 26 23 16 23 19 13 10
10 3 0 0 0 0 0 3 0 0 0 0 0 3 3 3 3 3 0 6 6 16 13 19 26 32 32 39 39 39 52 58 52 61 58 71 61 58 39 39 39 42 19 19 23 16 16 10 19
0 0 0 0 0 0 0 0 6 3 3 3 3 3 3 3 3 6 6 13 13 16 19 19 26 29 32 42 29 39 39 48 48 55 48 58 61 71 61 65 29 39 39 32 29 32 23 23 26
0 0 0 0 0 0 0 0 0 0 3 6 10 10 6 6 10 13 13 13 19 16 23 23 32 42 45 55 48 32 45 29 42 58 55 52 48 52 45 61 52 42 29 23 39 26 29 39 32
0 0 0 0 0 0 0 0 0 0 3 6 16 16 16 13 13 16 16 13 19 13 19 26 29 48 52 58 58 58 39 65 29 42 45 55 45 52 42 39 48 35 35 35 39 32 26 29 29
0 0 0 0 0 0 0 0 3 3 3 6 13 19 16 13 13 13 16 13 13 13 26 42 39 48 55 45 42 48 42 45 45 45 55 52 42 52 52 42 45 35 35 42 39 32 39 26 16
0 0 0 0 0 3 0 0 3 3 0 3 16 16 16 13 13 13 6 13 13 16 39 45 19 42 55 58 58 45 52 45 48 48 45 55 48 52 58 45 35 39 26 39 23 26 26 26 29
0 0 0 0 0 0 0 0 3 3 0 3 16 16 13 13 13 6 10 16 23 26 39 42 45 48 55 58 58 55 58 58 55 55 48 52 48 45 52 52 45 45 32 32 16 23 23 23 26
0 0 0 0 0 0 0 3 3 6 0 6 13 16 13 13 13 13 16 13 26 39 52 52 55 55 52 48 61 61 55 52 52 48 55 48 45 45 45 42 52 39 42 45 48 35 35 35 32
0 0 0 0 0 0 3 6 10 6 10 10 16 19 16 16 16 16 16 16 23 35 52 52 55 58 61 55 42 52 48 48 48 45 48 48 45 48 48 39 55 52 45 48 42 39 35 32 35
0 0 0 3 0 0 3 6 16 10 10 13 16 16 19 19 19 19 23 19 19 39 48 58 61 58 58 58 61 68 55 42 48 48 48 52 52 52 29 48 42 55 52 52 48 48 39 35 32
0 0 0 0 0 0 3 3 10 16 16 13 19 16 19 19 23 19 23 19 19 35 52 45 61 65 61 61 45 52 65 61 48 61 68 55 52 48 52 55 52 55 42 39 48 42 42 39 42
0 0 0 0 0 0 0 0 10 19 19 19 19 19 19 23 19 19 23 29 23 32 45 58 61 68 68 65 58 42 61 52 48 58 58 61 55 55 55 55 52 42 42 52 35 39 39 42 39
0 0 0 0 0 0 0 0 3 16 13 19 26 23 26 29 16 23 16 32 26 26 39 55 58 68 68 68 65 65 55 58 58 58 65 61 65 65 58 58 55 52 45 48 45 48 45 35 42
0 0 0 0 0 0 0 0 0 6 13 16 23 16 29 23 19 23 23 32 29 26 45 52 58 61 61 65 65 65 58 61 58 61 52 55 58 65 65 65 61 52 52 55 58 55 52 52 52
0 0 0 0 0 0 0 0 3 3 3 6 16 16 23 16 19 29 29 32 35 32 35 42 61 65 61 61 61 68 68 65 65 61 61 58 52 55 65 61 61 55 55 55 61 58 58 55 58
0 0 0 0 0 0 0 0 3 13 6 10 13 13 19 19 19 29 29 35 39 42 45 52 61 61 65 65 65 68 68 68 68 68 58 55 42 45 65 65 55 52 52 45 58 58 55 58 58
0 0 0 0 0 0 0 0 3 13 13 13 16 16 10 6 13 29 29 32 39 42 45 48 65 68 71 65 68 71 68 71 71 68 58 58 58 55 48 52 58 52 48 52 55 58 58 58 55
0 0 0 0 0 0 0 0 0 13 16 19 19 6 10 10 10 16 23 26 26 29 42 48 61 68 68 68 65 61 65 68 68 61 58 58 65 55 52 52 45 39 39 42 48 48 55 48 48
0 0 0 0 0 0 0 0 3 13 13 19 16 13 13 13 19 29 32 29 23 26 32 48 58 65 65 68 68 68 65 65 68 65 65 58 58 58 48 45 42 42 42 42 48 39 42 42 42
0 0 0 0 0 0 0 0 3 10 13 10 6 16 19 23 16 29 32 35 39 32 35 48 52 55 58 65 68 68 65 65 65 65 68 58 58 58 55 42 42 42 32 42 42 39 39 39 35

GEFSSGP_con_cape1000_300.txt.gz
Probability
16 16 35 58 61 42 3 0 0 0 0 0 0 0 0 3 0 0 0 10 6 13 26 42 65 55 55 58 68 65 65 68 71 65 61 58 55 58 65 74 68 71 65 65 61 61 61 58 61
13 29 42 58 42 6 0 0 0 0 0 0 0 0 0 0 0 3 6 16 16 16 19 35 61 61 61 55 65 65 68 65 68 58 52 52 48 58 61 68 68 71 71 65 61 48 52 48 52
26 42 39 42 16 0 0 0 0 0 0 0 0 0 0 0 0 3 13 23 16 19 26 52 58 58 55 48 55 61 61 58 68 61 61 48 45 52 45 55 58 58 58 48 52 45 52 48 55
55 55 42 32 0 0 0 0 0 0 0 0 0 0 3 0 10 10 16 16 13 16 23 39 58 58 45 45 52 58 71 65 65 58 61 52 45 39 42 42 55 48 52 48 52 52 48 42 45
42 52 39 10 0 0 0 0 0 0 0 0 0 3 3 3 13 10 13 16 10 10 13 23 58 52 55 55 48 58 65 65 58 55 42 48 45 42 39 45 45 35 42 39 42 42 48 52 39
45 35 13 0 0 0 0 0 0 0 0 0 0 0 3 3 10 6 6 10 10 6 6 29 61 61 65 61 48 52 52 58 61 55 55 48 52 48 42 42 35 42 39 42 35 29 39 39 48
32 23 6 0 0 0 0 0 0 0 0 0 0 3 3 3 10 13 16 13 10 10 10 16 32 48 74 65 58 52 52 58 55 61 58 58 52 39 48 48 48 45 39 39 39 32 42 45 45
10 16 3 0 0 0 0 0 0 0 0 0 0 0 3 3 10 10 10 10 13 13 13 26 19 29 32 52 68 58 58 65 65 65 71 65 61 52 58 48 48 45 42 39 39 39 42 52 45
10 13 0 0 0 0 0 0 0 3 0 3 3 3 6 6 10 10 13 16 16 16 13 13 19 26 29 26 35 55 65 68 65 68 68 68 48 39 55 45 55 42 39 42 35 52 48 52 52
10 3 0 0 0 0 0 0 0 0 0 3 3 3 0 3 13 16 10 13 13 16 13 13 23 39 35 26 42 48 29 55 68 71 71 74 68 61 29 52 74 61 52 39 42 58 48 39 16
0 0 0 0 0 0 0 3 0 3 0 3 3 3 0 6 13 13 10 19 16 16 26 23 35 39 39 48 45 48 55 71 61 71 68 77 71 52 48 52 58 48 42 35 39 48 26 29 42
0 0 0 0 0 0 0 3 3 3 3 0 0 0 3 13 13 16 16 16 26 26 23 29 39 48 55 61 55 48 45 58 55 74 74 74 74 71 65 68 61 55 52 58 48 55 52 52 39
0 0 0 0 0 0 0 0 0 0 0 0 0 3 13 13 16 23 19 23 29 29 26 39 55 65 65 74 71 61 68 61 52 84 71 71 81 77 71 71 77 61 61 48 65 52 48 39 35
0 0 0 0 0 0 0 0 0 0 0 3 6 10 13 13 13 19 19 26 29 32 32 39 55 58 68 68 77 68 58 74 68 68 68 68 71 74 74 68 71 65 65 61 55 48 52 42 39
0 0 0 0 0 0 0 0 0 0 3 3 3 10 10 13 16 13 19 23 29 48 52 52 45 55 61 61 61 52 61 61 71 77 74 68 68 68 65 74 61 61 58 58 61 55 48 45 35
0 0 0 0 0 0 0 0 0 0 0 3 6 13 16 16 13 16 23 26 39 52 55 58 35 58 61 68 68 65 65 65 71 77 71 65 65 65 74 68 68 65 58 61 58 55 48 45 42
0 0 0 0 0 0 0 3 3 0 0 6 13 13 16 16 16 19 13 32 42 61 65 68 68 58 61 68 68 68 65 68 68 68 68 65 65 61 68 61 68 55 65 68 35 48 55 48 42
0 0 0 0 0 0 0 3 3 0 0 6 13 13 13 16 16 16 19 23 48 58 68 71 71 71 71 71 71 71 68 68 68 65 65 65 65 65 58 74 55 58 65 61 58 52 52 45 45
0 0 0 0 0 0 0 0 0 0 0 3 6 13 16 19 16 23 23 29 45 58 68 74 71 71 71 74 71 68 61 71 65 65 65 65 68 61 65 61 61 58 55 55 52 42 48 42 45
0 0 0 0 0 0 0 0 0 3 10 10 10 16 19 23 29 35 32 35 48 55 65 68 74 71 71 74 74 71 71 71 71 68 71 68 65 61 42 61 61 55 58 55 52 48 52 42 42
0 0 0 0 0 0 0 0 3 3 6 6 10 19 19 23 29 29 26 32 45 52 61 61 71 77 71 71 71 71 71 71 71 71 71 71 65 65 58 55 58 58 58 61 55 55 48 48 42
0 0 0 0 0 0 0 3 10 19 10 10 13 16 13 16 29 26 29 35 39 58 55 68 71 77 74 71 71 71 68 65 68 71 71 71 68 65 58 61 52 61 61 58 52 61 61 55 55
0 0 0 0 0 0 0 3 6 13 16 13 13 13 13 19 19 26 29 45 32 52 58 65 77 74 74 74 74 74 71 65 68 71 71 71 74 68 61 61 61 58 58 61 58 45 52 55 58
0 0 0 0 0 0 0 0 6 10 13 13 16 13 19 23 19 26 26 45 42 39 55 61 74 77 77 74 74 74 71 71 71 71 74 71 71 68 65 65 65 65 65 65 58 58 58 61 58
0 0 0 0 0 0 0 0 13 13 10 16 19 19 19 23 23 32 42 35 42 42 55 61 74 81 81 81 71 71 74 71 65 68 74 71 71 68 65 61 65 61 61 55 61 65 52 52 48
0 0 0 0 0 0 0 6 10 10 10 23 19 16 16 16 16 29 45 42 39 39 52 55 74 74 74 71 74 74 71 68 68 68 71 71 65 61 68 65 58 61 55 58 61 58 58 52 55
0 0 0 0 0 0 0 3 6 10 10 16 23 19 19 16 16 16 29 35 35 32 42 48 71 71 68 71 71 68 68 68 68 68 71 71 71 65 61 61 55 55 55 52 61 58 55 58 58
0 0 0 0 3 0 0 3 10 10 13 16 26 23 23 13 19 23 35 39 39 32 45 65 68 65 68 68 71 68 68 68 68 68 68 74 68 68 61 58 55 52 52 55 61 58 58 55 58
0 0 0 0 0 0 0 6 3 16 19 19 19 19 23 16 23 39 39 42 48 45 48 61 68 71 68 68 71 71 68 68 71 71 71 68 71 65 58 52 48 48 45 48 58 55 52 48 52
0 0 0 0 10 0 0 0 6 10 19 19 19 23 23 23 23 35 39 48 52 52 48 61 65 65 65 65 68 68 71 68 71 71 74 71 65 61 61 55 58 52 52 58 61 52 45 42 48